Newberry, MI

1:57 PM EDT on May 21, 2018 (GMT -0400)
Luce County

Weather History for KERY - March, 2014

Change the Weather History Date:

Friday, March 14, 2014

  Actual Average Record
Temperature  
Mean Temperature 32 °F -  
Max Temperature 39 °F 33 °F 64 °F (2012)
Min Temperature 24 °F 17 °F -6 °F (1993)
Degree Days  
Heating Degree Days 34    
Moisture  
Dew Point 29 °F    
Average Humidity 89    
Maximum Humidity 96    
Minimum Humidity 75    
Precipitation  
Precipitation 0.00 in - - ()
Sea Level Pressure  
Sea Level Pressure 29.44 in    
Wind  
Wind Speed 13 mph (WSW)    
Max Wind Speed 18 mph    
Max Gust Speed 28 mph    
Averages and records for this station are not official NWS values.
T = Trace of Precipitation, MM = Missing Value Source: NWS Daily Summary

Daily Weather History Graph

Daily Weather History Graph

Search for Another Location

Airport or City:

Astronomy

Mar. 14, 2014 Rise Set
Actual Time 7:56 AM EDT 7:46 PM EDT
Civil Twilight 7:26 AM EDT 8:16 PM EDT
Nautical Twilight 6:51 AM EDT 8:51 PM EDT
Astronomical Twilight 6:16 AM EDT 9:26 PM EDT
Moon 6:03 PM EDT (3/14) 6:41 AM EDT (3/14)
Length of Visible Light 12h 49m
Length of Day
11h 49m
Waxing Gibbous, 96% of the Moon is Illuminated
Mar 14
Waxing Gibbous
Mar 16
Full
Mar 23
Last Quarter
Mar 30
New
Apr 7
First Quarter

Hourly Weather History & Observations

Time (EDT) Temp. Windchill Dew Point Humidity Pressure Visibility Wind Dir Wind Speed Gust Speed Precip Events Conditions
12:15 AM 26.4 °F 14.0 °F 23.9 °F 90% 29.63 in - SSW 16.1 mph 25.3 mph N/A   Overcast
12:35 AM 26.4 °F 13.6 °F 23.9 °F 90% 29.61 in - South 17.3 mph 27.6 mph N/A   Overcast
12:55 AM 26.2 °F 13.4 °F 23.9 °F 91% 29.60 in - South 17.3 mph 23.0 mph N/A   Overcast
1:15 AM 25.2 °F 11.6 °F 23.0 °F 91% 29.60 in - South 18.4 mph 21.9 mph N/A   Overcast
1:35 AM 24.8 °F 12.4 °F 22.8 °F 92% 29.58 in - SSW 15.0 mph 19.6 mph N/A   Overcast
1:55 AM 25.0 °F 11.3 °F 23.0 °F 92% 29.57 in - South 18.4 mph - N/A   Overcast
2:15 AM 25.5 °F 12.0 °F 23.5 °F 92% 29.56 in - South 18.4 mph 24.2 mph N/A   Overcast
2:34 AM 25.5 °F 12.9 °F 23.5 °F 92% 29.55 in - South 16.1 mph 24.2 mph N/A   Overcast
2:55 AM 25.2 °F 12.9 °F 23.4 °F 93% 29.54 in - SSW 15.0 mph 19.6 mph N/A   Overcast
3:15 AM 25.5 °F 12.0 °F 23.7 °F 93% 29.54 in - South 18.4 mph 21.9 mph N/A   Overcast
3:34 AM 25.5 °F 13.3 °F 23.9 °F 94% 29.52 in - South 15.0 mph 20.7 mph N/A   Overcast
3:55 AM 25.7 °F 13.5 °F 23.9 °F 93% 29.51 in - SSW 15.0 mph 20.7 mph N/A   Overcast
4:15 AM 26.1 °F 15.0 °F 24.4 °F 94% 29.50 in - SSW 12.7 mph 19.6 mph N/A   Overcast
4:34 AM 26.2 °F 15.2 °F 24.8 °F 94% 29.50 in - SSW 12.7 mph - N/A   Overcast
4:55 AM 26.4 °F 16.6 °F 24.8 °F 94% 29.48 in - South 10.4 mph - N/A   Overcast
5:15 AM 26.6 °F 17.5 °F 25.3 °F 95% 29.47 in - South 9.2 mph - N/A   Overcast
5:35 AM 27.3 °F 17.1 °F 26.2 °F 96% 29.45 in - South 11.5 mph 17.3 mph N/A   Overcast
5:55 AM 27.5 °F 16.8 °F 26.6 °F 96% 29.44 in - South 12.7 mph - N/A   Overcast
6:14 AM 28.0 °F 18.1 °F 27.0 °F 96% 29.42 in - South 11.5 mph 20.7 mph N/A   Overcast
6:35 AM 28.4 °F 18.5 °F 27.5 °F 96% 29.42 in - SSW 11.5 mph - N/A   Overcast
6:55 AM 29.3 °F 18.6 °F 28.4 °F 96% 29.41 in - SSW 13.8 mph - N/A   Overcast
7:15 AM 30.2 °F 18.9 °F 29.3 °F 96% 29.40 in - SSW 16.1 mph 19.6 mph N/A   Overcast
7:35 AM 31.1 °F 20.5 °F 30.2 °F 96% 29.39 in - SSW 15.0 mph 20.7 mph N/A   Overcast
7:54 AM 31.6 °F 22.1 °F 30.4 °F 95% 29.39 in - SSW 12.7 mph - N/A   Overcast
8:15 AM 32.0 °F 23.0 °F 30.7 °F 95% 29.39 in - SW 11.5 mph - N/A   Overcast
8:35 AM 32.0 °F 24.2 °F 30.7 °F 95% 29.38 in - SSW 9.2 mph 17.3 mph N/A   Overcast
8:54 AM 32.0 °F 22.5 °F 31.1 °F 96% 29.38 in - SSW 12.7 mph - N/A   Overcast
9:15 AM 32.2 °F 22.7 °F 31.1 °F 96% 29.38 in - SW 12.7 mph 17.3 mph N/A   Overcast
9:34 AM 32.5 °F 23.7 °F 31.5 °F 96% 29.37 in - SW 11.5 mph - N/A   Overcast
9:55 AM 32.9 °F 24.1 °F 31.5 °F 94% 29.36 in - SW 11.5 mph - N/A   Overcast
10:15 AM 33.1 °F 24.9 °F 31.6 °F 94% 29.36 in - SSW 10.4 mph - N/A   Overcast
10:34 AM 33.8 °F 26.4 °F 31.6 °F 92% 29.36 in - SW 9.2 mph - N/A   Overcast
10:55 AM 34.2 °F 25.7 °F 31.8 °F 91% 29.36 in - SW 11.5 mph - N/A   Mostly Cloudy
11:15 AM 34.7 °F 26.9 °F 31.8 °F 89% 29.35 in - SW 10.4 mph - N/A   Unknown
11:35 AM 35.4 °F 29.7 °F 32.0 °F 87% 29.35 in - WSW 6.9 mph - N/A   Unknown
11:55 AM 36.1 °F 31.4 °F 32.0 °F 85% 29.35 in - WSW 5.8 mph - N/A   Unknown
12:14 PM 36.1 °F 29.3 °F 32.0 °F 85% 29.34 in - SSW 9.2 mph - N/A   Unknown
12:35 PM 36.9 °F 30.1 °F 32.0 °F 83% 29.34 in - WSW 9.2 mph - N/A   Overcast
12:55 PM 37.4 °F 30.8 °F 32.0 °F 81% 29.34 in - WSW 9.2 mph - N/A   Mostly Cloudy
1:14 PM 37.0 °F 30.4 °F 32.0 °F 82% 29.34 in - WSW 9.2 mph - N/A   Scattered Clouds
1:35 PM 39.0 °F 34.0 °F 32.0 °F 76% 29.34 in - West 6.9 mph - N/A   Mostly Cloudy
1:55 PM 38.3 °F 31.4 °F 32.0 °F 78% 29.34 in - West 10.4 mph - N/A   Overcast
2:14 PM 38.3 °F 31.9 °F 32.0 °F 78% 29.35 in - West 9.2 mph - N/A   Overcast
2:35 PM 38.5 °F 31.6 °F 32.0 °F 78% 29.35 in - WSW 10.4 mph - N/A   Overcast
2:55 PM 38.1 °F 33.7 °F 32.0 °F 79% 29.35 in - WSW 5.8 mph - N/A   Overcast
3:15 PM 37.9 °F 30.0 °F 32.0 °F 79% 29.35 in - WSW 12.7 mph - N/A   Overcast
3:34 PM 38.7 °F 31.8 °F 32.0 °F 77% 29.35 in - West 10.4 mph - N/A   Overcast
3:55 PM 38.5 °F 30.3 °F 31.1 °F 75% 29.35 in - West 13.8 mph - N/A   Overcast
4:15 PM 37.8 °F 30.2 °F 30.9 °F 76% 29.36 in - West 11.5 mph 17.3 mph N/A   Overcast
4:34 PM 37.0 °F 28.5 °F 30.2 °F 76% 29.37 in - West 13.8 mph - N/A   Overcast
4:55 PM 36.7 °F 29.9 °F 30.9 °F 80% 29.37 in - WNW 9.2 mph 16.1 mph N/A   Overcast
5:15 PM 35.6 °F 28.6 °F 30.6 °F 82% 29.38 in - WNW 9.2 mph - N/A   Overcast
5:35 PM 35.1 °F 26.9 °F 30.0 °F 82% 29.39 in - WNW 11.5 mph - N/A   Overcast
5:55 PM 34.5 °F 26.2 °F 29.5 °F 82% 29.41 in - NNW 11.5 mph - N/A   Overcast
6:14 PM 32.0 °F 22.5 °F 28.8 °F 88% 29.42 in - NW 12.7 mph 19.6 mph N/A   Overcast
6:35 PM 31.1 °F 22.4 °F 29.1 °F 92% 29.43 in - NW 10.4 mph - N/A   Overcast
6:55 PM 31.5 °F 24.2 °F 29.1 °F 91% 29.44 in - NW 8.1 mph - N/A   Overcast
7:14 PM 31.5 °F 23.5 °F 29.1 °F 91% 29.45 in - WNW 9.2 mph - N/A   Overcast
7:35 PM 31.6 °F 23.1 °F 29.1 °F 90% 29.46 in - NW 10.4 mph - N/A   Overcast
7:55 PM 31.5 °F 24.2 °F 29.1 °F 91% 29.47 in - WNW 8.1 mph 16.1 mph N/A   Overcast
8:14 PM 31.3 °F 23.3 °F 29.1 °F 92% 29.48 in - WNW 9.2 mph - N/A   Overcast
8:35 PM 31.1 °F 23.7 °F 29.1 °F 92% 29.50 in - WNW 8.1 mph 16.1 mph N/A   Overcast
8:55 PM 30.9 °F 23.5 °F 28.4 °F 90% 29.51 in - NW 8.1 mph - N/A   Overcast
9:15 PM 30.7 °F 22.0 °F 27.5 °F 88% 29.51 in - WNW 10.4 mph - N/A   Overcast
9:35 PM 30.2 °F 21.3 °F 26.8 °F 87% 29.53 in - NW 10.4 mph 19.6 mph N/A   Overcast
9:54 PM 30.2 °F 22.6 °F 27.1 °F 88% 29.54 in - WNW 8.1 mph - N/A   Overcast
10:00 PM 30.2 °F 20.8 °F 27.1 °F 88% 29.54 in - WNW 11.5 mph - N/A   Overcast
10:25 PM 30.2 °F 21.3 °F 26.6 °F 86% 29.55 in - WNW 10.4 mph - N/A   Overcast
10:45 PM 28.4 °F 18.5 °F 26.6 °F 93% 29.56 in - West 11.5 mph - N/A   Overcast
11:25 PM 28.4 °F 18.5 °F 26.6 °F 93% 29.57 in - West 11.5 mph - N/A   Overcast
11:45 PM 26.6 °F 16.8 °F 24.8 °F 93% 29.58 in - West 10.4 mph - N/A   Overcast